Location: Unspecified
(0.0000°N, 0.0000°E)
Time: 15:38:27
(UTC+00:00)

IRVINE01 - Visible Passes

Search period start: 21 May 2019 00:00
Search period end: 31 May 2019 00:00
Orbit: 490 x 513 km, 85.0° (Epoch: 20 May)

Date Brightness Start Highest point End Pass type
(mag) Time Alt. Az. Time Alt. Az. Time Alt. Az.
23 May ? 19:07:20 10° WNW 19:08:49 12° W 19:10:19 10° WSW visible
24 May ? 05:22:31 10° ESE 05:24:20 13° E 05:26:09 10° ENE visible
24 May ? 18:46:54 10° NW 18:49:37 19° W 18:52:19 10° SW visible
25 May ? 18:27:05 10° NNW 18:30:24 30° W 18:33:42 10° SSW visible
29 May ? 05:19:33 10° SSE 05:23:06 43° E 05:26:39 10° NNE visible
30 May ? 05:00:43 10° SSE 05:03:52 26° E 05:07:02 10° NNE visible
